This demonstration page uses our WeatherBlox Daily Observations layout. Learn more.

Left ArrowRight Arrow

44.8408, -93.29828

Hourly Observations for March 1, 2020

Temp ( °F °C ) Dew Point ( °F °C ) Humidity (%) Winds ( mph kmh ) Pressure ( in mb ) Visibility ( mi km ) Precip ( " mm )
12:53 am 00:53 Mostly Cloudy 36 2.2 29 -1.7 76 76 SE 10 17 29.67 1005 10 16 0.00 0.00
1:53 am 01:53 Mostly Cloudy 35 1.7 29 -1.7 78 78 SE 8 13 29.64 1004 10 16 0.00 0.00
2:53 am 02:53 Mostly Cloudy 35 1.7 29 -1.7 78 78 SE 9 15 29.61 1003 10 16 0.00 0.00
3:53 am 03:53 Mostly Clear 34 1.1 28 -2.2 79 79 SSE 9 15 29.58 1002 10 16 0.00 0.00
4:53 am 04:53 Mostly Clear 34 1.1 28 -2.2 79 79 SSE 6 9 29.58 1002 10 16 0.00 0.00
5:53 am 05:53 Mostly Clear 32 0 27 -2.8 82 82 SE 5 7 29.59 1002 10 16 0.00 0.00
6:53 am 06:53 Partly Cloudy 35 1.7 30 -1.1 82 82 SW 6 9 29.60 1002 10 16 0.00 0.00
7:53 am 07:53 Partly Cloudy 36 2.2 30 -1.1 79 79 WSW 6 9 29.61 1003 10 16 0.00 0.00
8:53 am 08:53 Mostly Cloudy 37 2.8 31 -0.6 79 79 SSW 5 7 29.60 1003 10 16 0.00 0.00
9:53 am 09:53 Mostly Sunny 40 4.4 32 0 73 73 W 8 13 29.64 1004 10 16 0.00 0.00
10:53 am 10:53 Mostly Sunny 44 6.7 32 0 63 63 WNW 7 11 29.66 1005 10 16 0.00 0.00
11:53 am 11:53 Mostly Sunny 46 7.8 32 0 58 58 W 9 15 29.68 1005 10 16 0.00 0.00
12:53 pm 12:53 Mostly Sunny 48 8.9 32 0 54 54 W 10 17 29.67 1005 10 16 0.00 0.00
1:53 pm 13:53 Mostly Sunny 49 9.4 30 -1.1 48 48 W 13 20 29.68 1005 10 16 0.00 0.00
2:53 pm 14:53 Partly Cloudy 48 8.9 29 -1.7 48 48 W 15 24 29.69 1005 10 16 0.00 0.00
3:53 pm 15:53 Partly Cloudy 47 8.3 29 -1.7 50 50 WNW 17 28 29.70 1006 10 16 0.00 0.00
4:53 pm 16:53 Mostly Cloudy 42 5.6 27 -2.8 55 55 WNW 17 28 29.73 1007 10 16 0.00 0.00
5:53 pm 17:53 Mostly Cloudy 40 4.4 28 -2.2 63 63 NW 20 31 29.76 1008 10 16 0.00 0.00
6:53 pm 18:53 Mostly Cloudy 38 3.3 25 -3.9 60 60 NW 21 33 29.79 1009 10 16 0.00 0.00
7:53 pm 19:53 Cloudy 37 2.8 26 -3.3 65 65 WNW 20 31 29.81 1010 10 16 0.00 0.00
8:53 pm 20:53 Cloudy 36 2.2 26 -3.3 67 67 WNW 17 28 29.82 1010 10 16 0.00 0.00
9:12 pm 21:12 Cloudy 36 2.2 26 -3.3 67 67 WNW 13 20 29.84 1010 10 16 0.00 0.00
9:53 pm 21:53 Cloudy 36 2.2 27 -2.8 70 70 WNW 14 22 29.83 1010 10 16 0.00 0.00
10:15 pm 22:15 Cloudy 36 2.2 27 -2.8 70 70 WNW 12 19 29.84 1010 10 16 0.00 0.00
10:53 pm 22:53 Cloudy 36 2.2 27 -2.8 70 70 WNW 15 24 29.83 1010 10 16 0.00 0.00
11:53 pm 23:53 Cloudy 36 2.2 27 -2.8 70 70 WNW 10 17 29.83 1010 10 16 0.00 0.00

Powered by AerisWeather